Regional Weather Roundup
Issued by NWS

Home | Current Version | Previous Version | Text Only | Print | Product List | Glossary Off
Versions: 1 2 3 4 5 6 7 8 9 10 11 12 13 14 15 16 17 18 19 20 21 22 23 24 25 26 27 28 29 30 31 32 33 34 35 36 37 38 39 40 41 42 43 44 45 46 47 48 49 50

000
ASUS43 KMKX 271021
RWRWI

WISCONSIN REGIONAL WEATHER ROUNDUP
NATIONAL WEATHER SERVICE MILWAUKEE/SULLIVAN WI
400 AM CST SAT DEC 27 2014

NOTE: "FAIR" INDICATES FEW OR NO CLOUDS BELOW 12,000 FEET WITH NO
SIGNIFICANT WEATHER AND/OR OBSTRUCTIONS TO VISIBILITY.

WIZ001-002-006>008-014>016-023>028-271100-
NORTHWEST WISCONSIN

CITY           SKY/WX    TMP DP  RH WIND       PRES   REMARKS
SUPERIOR ARPT  CLOUDY    26  19  76 N5        30.05F WCI  20
ASHLAND        LGT SNOW  27  25  92 N10       30.03F FOG     WCI  17
HAYWARD        LGT SNOW  27  24  89 N7        29.96F FOG     WCI  19
SIREN          LGT SNOW  25  23  93 N9        29.99F WCI  15
CUMBERLAND     LGT SNOW  27  25  93 N8        29.95F WCI  18
RICE LAKE      LGT SNOW  28  26  93 N13       29.95F WCI  17
CHETEK         LGT SNOW  28  27  94 N5        29.94F WCI  23
LADYSMITH      LGT SNOW  29  28  94 N14       29.93F WCI  19
EAU CLAIRE     LGT SNOW  29  26  89 N8        29.90F FOG     WCI  21
MENOMONIE      LGT SNOW  30  28  94 N8        29.93S WCI  22
NEW RICHMOND   LGT SNOW  26  26  98 N9        29.97S WCI  17
OSCEOLA        LGT SNOW  26  26 100 N8        30.02S WCI  17
$$

WIZ003>005-009-010-017-018-271100-
NORTH CENTRAL WISCONSIN

CITY           SKY/WX    TMP DP  RH WIND       PRES   REMARKS
MANITOWISH WTR LGT SNOW  27  27 100 N3        29.94S
ARBOR VITAE    LGT SNOW  32  30  94 CALM      29.94R
WOODRUFF       LGT SNOW  32  30  94 CALM      29.94R
RHINELANDER    LGT SNOW  29  27  92 NE6       29.93S VSB 1   WCI  23
EAGLE RIVER    LGT SNOW  29  29 100 NE3       29.93S
LAND O LAKES   LGT SNOW  29  28  96 NE3       29.94F
PHILLIPS       LGT SNOW  28  27  96 N9        29.92F WCI  19
TOMAHAWK       LGT SNOW  29  28  95 CALM      29.93F
MEDFORD        MIX PCPN  29  28  96 NE7       29.88F WCI  22
MERRILL        LGT SNOW  31  31 100 NE5       29.90F WCI  26
$$

WIZ029-030-035-036-043>047-271100-
CENTRAL WISCONSIN

CITY           SKY/WX    TMP DP  RH WIND       PRES   REMARKS
WAUSAU         LGT SNOW  32  31  96 NE5       29.86F FOG     WCI  27
MOSINEE        LGT SNOW  32  32 100 E7        29.88F WCI  26
MARSHFIELD     LGT SNOW  33  31  92 E6        29.88S FOG     WCI  28
STEVENS POINT  MIX PCPN  31  31 100 E6        29.87F VSB 3/4 WCI  25
WAUPACA        LGT RAIN  35  34  96 NE5       29.87F VSB 1/2 WCI  31
WAUTOMA        CLOUDY    34  34 100 NE3       29.90F FOG
WISC RAPIDS    CLOUDY    33  31  92 E5        29.89F FOG     WCI  29
CAMP DOUGLAS   CLOUDY    32  32 100 E2        29.88S FOG
$$

WIZ011>013-019>022-031-037>040-048>050-271100-
NORTHEAST WISCONSIN

CITY           SKY/WX    TMP DP  RH WIND       PRES   REMARKS
ANTIGO         LGT SNOW  31  30  99 E5        29.90F WCI  26
SHAWANO        DRZL/FOG  34  33  96 NE3       29.92F VSB 1/4
OCONTO         CLOUDY    33  33 100 NE3       29.95F VSB 3/4
STURGEON BAY   CLOUDY    37  36  93 NE3       29.95F VSB 1/4
GREEN BAY      MIX PCPN  34  34 100 NE7       29.94F VSB 1/4 WCI  28
MANITOWOC      LGT RAIN  36  36 100 CALM      29.93F VSB 1/2
APPLETON       LGT RAIN  34  34 100 NE6       29.92F VSB 1/4 WCI  29
CLINTONVILLE   FOG       32  32 100 NE5       29.90F VSB 1/4 WCI  27
OSHKOSH        CLOUDY    34  32  92 NE3       29.91F FOG
$$

WIZ032>034-041-042-053>061-271100-
SOUTHWEST WISCONSIN

CITY           SKY/WX    TMP DP  RH WIND       PRES   REMARKS
LA CROSSE      MIX PCPN  33  32  96 N5        29.88F FOG     WCI  29
SPARTA         LGT RAIN  33  33 100 CALM      29.89F
VIROQUA        CLOUDY    33  33 100 E3        29.85F
BOSCOBEL       CLOUDY    34  32  92 CALM      29.88F FOG
PRAIRIE DU CHI LGT RAIN  34  32  93 CALM      29.88F
PLATTEVILLE    CLOUDY    38  37  97 SW3       29.89R
$$

WIZ056-057-062-063-064-067-068-271100-
SOUTH CENTRAL WISCONSIN

CITY           SKY/WX    TMP DP  RH WIND       PRES   REMARKS
REEDSBURG      CLOUDY    32  32  99 CALM      29.89S FOG
BARABOO/DELLS  FOG       32  32  99 CALM      29.88F VSB 1
LONE ROCK      LGT RAIN  38  33  82 SW5       29.90R WCI  34
MINERAL POINT  LGT RAIN  41  39  93 CALM      29.87S
MADISON        CLOUDY    37  36  96 CALM      29.88F FOG
MIDDLETON      CLOUDY    38  37  99 CALM      29.89S
WATERTOWN      CLOUDY    40  40 100 SE5       29.88F FOG
MONROE         CLOUDY    43  41  93 S10       29.89S FOG
JANESVILLE     MOCLDY    45  43  93 S8        29.88F
$$

WIZ051-052-058>065-066-070>072-271100-
SOUTHEAST WISCONSIN

CITY           SKY/WX    TMP DP  RH WIND       PRES   REMARKS
MILWAUKEE      LGT RAIN  45  41  86 S8        29.93F
WAUKESHA       DRIZZLE   41  41 100 S6        29.92F
MILWAUKEE/TIMM CLOUDY    43  39  87 S3        29.93F
RACINE         CLOUDY    44  40  85 S5        29.95F
BURLINGTON     CLOUDY    43  41  93 S7        29.92F
KENOSHA        CLOUDY    46  43  89 S9        29.93F
FOND DU LAC    LGT RAIN  35  33  92 SE5       29.90F FOG     WCI  31
SHEBOYGAN      FOG       35  35 100 CALM      29.92F VSB 1/4
WEST BEND      DRIZZLE   37  36  93 SE3       29.91F
JUNEAU         CLOUDY    37  37  99 E9        29.89F FOG     WCI  30
$$

LSZ147-162-271100-
LAKE SUPERIOR

STATION/POSITION TIME  TEMP    WIND        PRES    WAVE
                       AIR SEA DIR/SP/G            HT/PER
                 (UTC) (F)     (DEG/KT/KT) (MB)    (FT/S)
DEVILS ISLAND    1000   29      30/ 12/ 14 1018.4F
PORT WING        0900   30      20/  6/ 10 1018.3R
SAXON HARBOR     0900   31      10/ 11/ 14 1016.9F
$$

LMZ867-665-643>646-271100-
LAKE MICHIGAN

STATION/POSITION TIME  TEMP    WIND        PRES    WAVE
                       AIR SEA DIR/SP/G            HT/PER
                 (UTC) (F)     (DEG/KT/KT) (MB)    (FT/S)
CHAMBERS ISLAND  0900   34      20/ 10/ 11 1015.2F
NORTHPORT PIER   1000   35      70/  4/  8 1014.9F
SISTER BAY       0943             CALM       N/A
ALGOMA LAKESHORE 0930             CALM       N/A
KEWAUNEE LAKESHO 1000   38      40/  1/  3 1012.8F
SHEBOYGAN LAKESH 1000   39 39  340/  1/  2 1014.2F
PORT WASHINGTON  0940   39      CALM  /  1 1014.6F
MILWAUKEE LAKESH 1000   40     150/  8/  9   N/A
KENOSHA   LAKESH 1000   39     180/ 11/ 13 1013.9F
$$

TC  - TEMPERATURE IN CELSIUS
VSB - VISIBILITY IN STATUTE MILES
WCI - WIND CHILL INDEX
HX  - HEAT INDEX




USA.gov is the U.S. government's official web portal to all federal, state and local government web resources and services.